Regional Weather Roundup
Issued by NWS Charleston, SC

Current Version | Previous Version | Graphics & Text | Print | Product List | Glossary On
Versions: 1 2 3 4 5 6 7 8 9 10 11 12 13 14 15 16 17 18 19 20 21 22 23 24 25 26 27 28 29 30 31 32 33 34 35 36 37 38 39 40 41 42 43 44 45 46 47 48 49 50
000 ASUS42 KCHS 242112 RWRCHS REGIONAL WEATHER ROUNDUP NATIONAL WEATHER SERVICE CHARLESTON SC 500 PM EDT MON APR 24 2017 NOTE: "FAIR" INDICATES FEW OR NO CLOUDS BELOW 12,000 FEET WITH NO SIGNIFICANT WEATHER AND/OR OBSTRUCTIONS TO VISIBILITY. NOT ALL STATIONS ARE QUALITY CONTROLLED. USE DATA WITH CAUTION... ESPECIALLY DEWPOINT OBSERVATIONS. SCZ027-030-031-034>040-042>050-242200- ...SOUTHEAST SOUTH CAROLINA... CITY SKY/WX TMP DP RH WIND PRES REMARKS N CHARLESTON PTSUNNY 71 65 81 NE8 29.59F WATERFRONT PRK N/A 74 66 75 S12 29.57F JOHNS ISLAND MOCLDY 77 63 61 VRB5 29.59F PINOPOLIS N/A 66 64 94 NE10 29.53F MONCKS CORNER CLOUDY 64 63 94 NE8 29.61F SUMMERVILLE MOCLDY 70 64 83 N7 29.60F BEAUFORT MCAS MOSUNNY 77 49 37 SW14 29.61S BEAUFORT ARPT FAIR 77 48 36 W13G21 29.60F HILTON HEAD IS NOT AVBL WALTERBORO CLOUDY 77 61 57 W14 29.60S ALLENDALE MOCLDY 72 59 64 VRB5G14 29.61S ...SOUTHERN MIDLANDS AND PEE DEE... CITY SKY/WX TMP DP RH WIND PRES REMARKS GEORGETOWN RAIN 64 64 100 N9 29.64S KINGSTREE RAIN 61 59 94 N7 29.65S ORANGEBURG TSTM 64 62 93 N8 29.64R FOG BARNWELL DRIZZLE 63 61 94 NW9G15 29.65R AIKEN CLOUDY 57 54 88 N12 29.71S MANNING CLOUDY 63 59 88 NE13 29.63F COLUMBIA LGT RAIN 61 58 90 N7 29.66F SUMTER CLOUDY 62 60 92 NE10 29.63S FOG FLORENCE LGT RAIN 61 60 97 N13 29.67F MYRTLE BEACH CLOUDY 70 64 83 N8 29.66R N MYRTLE BEACH CLOUDY 68 66 93 CALM 29.64S $$ GAZ063-065-086>088-099>101-113>116-118-119-134>141-150-242200- ...SOUTHEAST GEORGIA... CITY SKY/WX TMP DP RH WIND PRES REMARKS SAVANNAH ARPT PTSUNNY 75 49 39 W13 29.63F HUNTER AAF CLOUDY 72 55 56 W18 29.61S FORT STEWART MOSUNNY 73 48 41 W12 29.62F STATESBORO PTSUNNY 71 54 55 W12G17 29.64F SYLVANIA LGT RAIN N/A N/A N/A W6 29.65S CLAXTON FAIR 72 56 57 SW6 29.64F ...CSRA...CENTRAL AND FAR SOUTHEAST GEORGIA... CITY SKY/WX TMP DP RH WIND PRES REMARKS THOMSON PTSUNNY 65 57 75 S5 29.74S AUGUSTA-BUSH CLOUDY 64 55 72 N13 29.66F AUGUSTA-DANIEL CLOUDY 63 53 70 N12 29.68F SWAINSBORO CLOUDY 64 55 72 NW9G17 29.68R VIDALIA MOSUNNY 72 55 56 W9 29.67R EASTMAN MOCLDY 70 46 41 NW8 29.71S HAZLEHURST MOCLDY 70 55 59 W7 29.67R ALMA PTSUNNY 70 53 54 W9 29.68F WAYCROSS CLOUDY 72 54 52 W10G16 29.68S JESUP FAIR 72 46 40 W9G17 29.67S BAXLEY PTSUNNY 72 57 60 W9 29.67S BRUNSWICK PTSUNNY 72 55 56 W13G20 29.66S SAINT SIMONS PTSUNNY 71 50 47 W14G22 29.65R $$ SCZ027-028-034-036>038-045-046-048>050-GAZ119-141-242200- ...LAKE AND SUPPLEMENTAL COASTAL OBSERVATIONS... STATION/POSITION TIME TEMP WIND PRES WAVE SWELL AIR SEA DIR/SP/G HT/PER HT/PER/DIR (UTC) (F) (DEG/KT/KT) (MB) (FT/S) (FT/S/D) WINYAH BAY 1945 69 80/ 4 1003.0 LAKE MURRAY 2020 58 360/ 5/ 9 1004.7 ACE BASIN NERRS NOT AVBL FORT PULASKI 2048 73 75 280/ 12/ 17 1003.2F SAPELO ISLAND 2000 74 260/ 15 1004.0 $$ ANZ835-935-AMZ111-154-330-350-352-354-370-450-454-472-242200- ...C-MAN AND BUOY OBSERVATIONS... STATION/POSITION TIME TEMP WIND PRES WAVE SWELL AIR SEA DIR/SP/G HT/PER HT/PER/DIR (UTC) (F) (DEG/KT/KT) (MB) (FT/S) (FT/S/D) BUOY 41004 2050 71 74 230/ 14/ 17 1002.3F 7/ 8 7/150/ 8 BUOY 41008 1950 72 72 240/ 12/ 14 1003.3 4/ 7 3/100/ 7 FOLLY BEACH CMAN 2000 72 190/ 15/ 19 1003.3F CAPERS NEARSHORE 2008 71 72 150/ 12/ 17 1002.5F FRIPP NEARSHORE 2008 73 72 260/ 12/ 17 1002.5F STATION/POSITION TIME TEMP WIND PRES WAVE SWELL AIR SEA DIR/SP/G HT/PER HT/PER/DIR (UTC) (F) (DEG/KT/KT) (MB) (FT/S) (FT/S/D) 5E ST. MARYS GA 2030 73 N/A 3/ 8 2/ 80/11 FRYING PAN BUOY 2050 69 75 220/ 16/ 19 1002.8F 8/ 8 5/130/ 8 BUOY 41025 2050 75 79 130/ 29/ 37 1007.0F 10/ 7 CAPE LOOKOUT NC 2000 70 110/ 26/ 29 1005.6F BUOY 41002 2050 71 75 70/ 23/ 33 1001.9F 11/ 8 BUOY 41010 2050 77 77 230/ 12/ 16 1004.3F 6/ 8 5/120/ 8 ST AUGUSTINE FL 2100 75 75 280/ 14/ 19 1005.0F $$

USA.gov is the U.S. government's official web portal to all federal, state and local government web resources and services.